[[{"header":{"parameterUnit":"m.s-1","parameterCategory":1,"la1":30.2991,"la2":30.254,"lo1":-89.0895,"lo2":-89.0444,"dy":0.0017,"dx":0.0017,"nx":28,"ny":28,"refTime":"2023-09-06T09:00:00:Z","depth":0,"parameterNumber":2,"parameterNumberName":"U-component_of_WINDS"},"data":[0,0,0,0,0,0,0,0,0,0,0,0,0,0,0,0,0,0,0,0,0,0,0,0,0,0,0,0,0,0,0,0,0,0,0,0,0,0,0,0,0,0,0,0,0,0,0,0,0,0,0,0,0,0,0,0,0,0,1.3317,1.3318,0,1.3372,1.3373,1.3374,1.3376,1.3376,1.3375,1.3374,1.343,1.3432,1.3434,0,0,0,0,0,0,0,0,0,0,0,0,0,1.3211,1.3213,1.3317,1.3318,1.3318,1.3372,1.3373,1.3374,1.3376,1.3376,1.3375,1.3374,1.3429,1.3431,1.3434,0,0,0,0,0,0,0,0,0,0,0,0,0,1.326,1.3213,1.3317,1.3326,1.3328,1.3372,1.3373,1.3374,1.3377,1.3376,1.3375,1.3374,1.3428,1.3431,1.3434,1.3472,0,0,1.3444,1.3445,0,0,0,0,0,0,0,0,1.3258,1.3264,1.3324,1.3326,1.3327,1.3366,1.3356,1.3407,1.3377,1.3358,1.3374,1.3373,1.3409,1.3414,1.3426,1.3475,1.3477,1.3444,1.3446,1.3447,1.3448,0,0,0,0,0,0,0,1.3254,1.3262,1.3339,1.3325,1.3327,1.3327,1.3333,1.3365,1.3388,1.336,1.336,1.3366,1.341,1.3423,1.3428,1.3478,1.3444,1.3446,1.3448,1.345,1.3558,1.3559,0,0,0,0,0,0,1.3249,1.3259,1.3337,1.334,1.3289,1.3329,1.3336,1.3355,1.3388,1.3392,1.3367,1.3366,1.3418,1.3424,1.3429,1.3474,1.3447,1.345,1.3452,1.3557,1.3558,1.3559,0,0,0,0,0,0,1.3247,1.3256,1.3335,1.33,1.331,1.3332,1.3353,1.3356,1.337,1.3394,1.3398,1.3377,1.3418,1.3425,1.3461,1.3476,1.3451,1.3454,1.3556,1.3557,1.3559,1.3566,0,0,0,0,0,0,1.3244,1.3255,1.3271,1.33,1.3312,1.3367,1.3354,1.3358,1.3375,1.3375,1.3404,1.3408,1.3418,1.3456,1.3464,1.348,1.3457,1.3554,1.3556,1.3558,1.3564,1.3567,1.357,0,0,0,0,0,1.324,1.3271,1.3272,1.3281,1.3332,1.3367,1.3374,1.3385,1.3377,1.3392,1.3407,1.3407,1.3474,1.346,1.3469,1.3486,1.3554,1.3556,1.3558,1.3563,1.3567,1.357,0,0,0,0,0,0,1.3243,1.3275,1.3276,1.3318,1.334,1.3368,1.3387,1.3389,1.3414,1.3412,1.3425,1.3431,1.3466,1.348,1.3464,1.3523,1.3512,1.3517,1.3513,1.3517,1.352,1.3515,1.3459,0,0,0,0,0,1.3249,1.3276,1.3302,1.3336,1.3347,1.3365,1.3381,1.3388,1.3411,1.342,1.3438,1.346,1.3485,1.3502,1.3527,1.3566,1.3571,1.3582,1.3585,1.3587,1.359,1.3609,1.3614,1.3567,1.3567,1.3567,0,0,1.326,1.3281,1.3298,1.3337,1.3355,1.3381,1.3373,1.3402,1.3421,1.3424,1.3459,1.3473,1.3498,1.3534,1.3552,1.3547,1.3604,1.359,1.3592,1.3594,1.3612,1.3616,1.362,1.3568,1.3568,1.3568,0,0,1.3295,1.3314,1.3343,1.3361,1.3388,1.34,1.3406,1.3434,1.3443,1.3478,1.348,1.3503,1.3547,1.3564,1.3579,1.3617,1.3617,1.3625,1.3639,1.3658,1.3661,1.3665,1.3676,1.368,1.3628,1.3628,1.3628,0,1.3306,1.3346,1.3358,1.3386,1.3402,1.3407,1.3435,1.3452,1.3485,1.3496,1.349,1.3544,1.3562,1.3601,1.361,1.3623,1.363,1.3621,1.366,1.3663,1.3667,1.3678,1.3682,1.3629,1.3629,1.3629,1.3628,0,1.3357,1.3385,1.3405,1.3436,1.3455,1.3483,1.3498,1.3516,1.352,1.3532,1.3566,1.3587,1.3615,1.3625,1.3631,1.3665,1.3661,1.3658,1.3647,1.3672,1.3682,1.3687,1.363,1.3629,1.3629,1.3629,0,0,1.3395,1.3432,1.3439,1.3452,1.3481,1.3502,1.353,1.3557,1.3571,1.3594,1.3615,1.3652,1.3649,1.3665,1.3672,1.3688,1.3714,1.3683,1.3683,1.3686,1.3751,1.3752,1.3757,1.3715,1.3716,1.3717,1.3748,0,1.343,1.348,1.349,1.3533,1.3557,1.356,1.3584,1.3603,1.3615,1.3636,1.3649,1.3674,1.3668,1.3678,1.3694,1.3708,1.3727,1.3706,1.3734,1.3735,1.3726,1.3763,1.3765,1.3794,1.3753,1.3753,1.3754,0,1.3479,1.3502,1.3546,1.357,1.3581,1.3602,1.3626,1.3648,1.3669,1.3676,1.3693,1.3698,1.3725,1.3713,1.375,1.3735,1.3747,1.3755,1.3756,1.3758,1.3745,1.3764,1.3803,1.3807,1.3761,1.376,1.376,0,1.3499,1.3542,1.3573,1.3585,1.3614,1.3628,1.364,1.3661,1.3676,1.3698,1.3707,1.3732,1.3745,1.3763,1.3774,1.3765,1.3808,1.3798,1.3813,1.3813,1.3821,1.3821,1.3862,1.3832,1.3832,1.3832,1.3832,0,1.3537,1.3563,1.3582,1.3601,1.363,1.3642,1.367,1.3682,1.37,1.372,1.3725,1.3744,1.3758,1.3778,1.3787,1.3814,1.3821,1.3826,1.3827,1.3824,1.3823,1.3832,1.3829,1.3833,1.3833,1.3833,1.3832,0,1.3564,1.3578,1.3612,1.3636,1.3643,1.3663,1.3683,1.3701,1.3712,1.3738,1.3744,1.3761,1.3786,1.3798,1.3829,1.3834,1.3864,1.3866,1.3857,1.3857,1.3871,1.3869,1.3917,1.3923,1.3891,1.3891,1.3892,0,1.3587,1.3607,1.3633,1.3647,1.366,1.3683,1.3698,1.3709,1.3725,1.375,1.3764,1.3788,1.3808,1.3846,1.3861,1.3884,1.3884,1.39,1.3888,1.3883,1.3882,1.388,1.3881,1.3901,1.3902,1.3902,1.3902,0,1.3624,1.363,1.3652,1.3675,1.3693,1.3712,1.3731,1.3742,1.3757,1.3773,1.3798,1.3813,1.3844,1.3867,1.3891,1.3902,1.3904,1.3906,1.391,1.3907,1.39,1.3902,1.3861,1.3905,1.3904,1.3904,1.3904,1.3904,1.3648,1.3666,1.3686,1.371,1.3725,1.3742,1.3759,1.3772,1.3793,1.3818,1.3824,1.3849,1.3868,1.39,1.3912,1.3932,1.3928,1.3935,1.3937,1.3938,1.3937,1.3898,1.3936,1.3936,1.3936,1.3936,1.3936,0,1.3684,1.3697,1.3719,1.3745,1.3763,1.3763,1.3784,1.3798,1.3821,1.3839,1.3858,1.3885,1.3907,1.3923,1.3946,1.3958,1.3959,1.3963,1.3962,1.3964,1.394,1.3933,1.3962,1.3962,1.3962,1.3962,1.3962,1.3962,1.3705,1.3733,1.3741,1.3776,1.3789,1.3814,1.3825,1.384,1.3854,1.3884,1.3903,1.3913,1.393,1.3953,1.3973,1.3977,1.3984,1.3988,1.3992,1.3969,1.3966,1.3963,1.3957,1.399,1.399,1.4014,1.4014,1.4014]},{"header":{"parameterUnit":"m.s-1","parameterCategory":1,"la1":30.2991,"la2":30.254,"lo1":-89.0895,"lo2":-89.0444,"dy":0.0017,"dx":0.0017,"nx":28,"ny":28,"refTime":"2023-09-06T09:00:00:Z","depth":0,"parameterNumber":3,"parameterNumberName":"V-component_of_WINDS"},"data":[0,0,0,0,0,0,0,0,0,0,0,0,0,0,0,0,0,0,0,0,0,0,0,0,0,0,0,0,0,0,0,0,0,0,0,0,0,0,0,0,0,0,0,0,0,0,0,0,0,0,0,0,0,0,0,0,0,0,1.1295,1.1295,0,1.1327,1.1327,1.1328,1.1322,1.1321,1.1321,1.132,1.1353,1.1354,1.1355,0,0,0,0,0,0,0,0,0,0,0,0,0,1.1226,1.1227,1.1294,1.1295,1.1295,1.1327,1.1327,1.1328,1.1322,1.1321,1.1321,1.132,1.1352,1.1354,1.1356,0,0,0,0,0,0,0,0,0,0,0,0,0,1.1257,1.1228,1.1294,1.1296,1.1297,1.1327,1.1327,1.1328,1.1322,1.1321,1.1321,1.132,1.1352,1.1354,1.1356,1.1386,0,0,1.1362,1.1363,0,0,0,0,0,0,0,0,1.1255,1.1259,1.1296,1.1296,1.1297,1.132,1.1315,1.1347,1.1322,1.1313,1.132,1.1319,1.1342,1.1345,1.1353,1.1387,1.1389,1.1362,1.1364,1.1365,1.1365,0,0,0,0,0,0,0,1.1253,1.1258,1.1307,1.1296,1.1297,1.1295,1.1298,1.1321,1.1332,1.1313,1.1313,1.1317,1.1342,1.1351,1.1354,1.1389,1.1362,1.1364,1.1365,1.1366,1.1447,1.1447,0,0,0,0,0,0,1.125,1.1256,1.1306,1.1308,1.1273,1.1297,1.1301,1.1313,1.1332,1.1334,1.1318,1.1317,1.1348,1.1351,1.1355,1.1389,1.1365,1.1366,1.1368,1.1446,1.1447,1.1448,0,0,0,0,0,0,1.1249,1.1255,1.1305,1.1282,1.1288,1.1299,1.1313,1.1314,1.1323,1.1335,1.1337,1.1325,1.1347,1.1352,1.1378,1.1391,1.1367,1.1369,1.1445,1.1446,1.1447,1.146,0,0,0,0,0,0,1.1247,1.1254,1.1267,1.1282,1.1289,1.1328,1.1314,1.1315,1.1326,1.1325,1.1342,1.1344,1.1347,1.1374,1.138,1.1393,1.1371,1.1444,1.1445,1.1447,1.1458,1.1461,1.1464,0,0,0,0,0,1.1244,1.1269,1.1267,1.1273,1.1305,1.1329,1.1333,1.1336,1.1328,1.1339,1.1347,1.1343,1.1388,1.1377,1.1383,1.1397,1.1443,1.1445,1.1447,1.1457,1.1461,1.1464,0,0,0,0,0,0,1.1255,1.1271,1.1269,1.13,1.1313,1.1328,1.1343,1.1341,1.1356,1.1355,1.1358,1.1362,1.1387,1.1395,1.1382,1.1426,1.1414,1.1417,1.142,1.1424,1.1427,1.1424,1.1373,0,0,0,0,0,1.1261,1.1279,1.1292,1.1318,1.1325,1.1332,1.1343,1.1344,1.1358,1.1363,1.1373,1.1385,1.1402,1.1413,1.143,1.1459,1.1462,1.1472,1.1474,1.1477,1.1479,1.1494,1.1498,1.1454,1.1454,1.1454,0,0,1.1273,1.1285,1.1296,1.132,1.1331,1.1348,1.1337,1.1357,1.137,1.1366,1.1391,1.1398,1.1412,1.1439,1.1452,1.1446,1.1492,1.1479,1.1481,1.1483,1.1496,1.15,1.1504,1.1456,1.1455,1.1455,0,0,1.1305,1.1316,1.1338,1.1348,1.1363,1.1367,1.1373,1.1387,1.1392,1.1416,1.1413,1.1428,1.1458,1.1467,1.1476,1.1509,1.1505,1.1514,1.1529,1.1543,1.1546,1.1549,1.1559,1.1563,1.1516,1.1516,1.1516,0,1.1319,1.1346,1.1349,1.1369,1.1379,1.1375,1.1396,1.1406,1.1426,1.1432,1.1426,1.1461,1.1471,1.1499,1.1507,1.1515,1.152,1.1512,1.1545,1.1548,1.1551,1.1561,1.1565,1.1517,1.1517,1.1517,1.1517,0,1.1361,1.138,1.1396,1.1414,1.1426,1.1446,1.1451,1.1462,1.1462,1.1467,1.1491,1.1502,1.152,1.1526,1.1527,1.1554,1.155,1.1545,1.1533,1.1556,1.1565,1.1569,1.1519,1.1518,1.1518,1.1518,0,0,1.1402,1.142,1.1426,1.1433,1.1448,1.1463,1.1482,1.1499,1.1508,1.1521,1.1536,1.156,1.1554,1.1564,1.1565,1.1578,1.1601,1.157,1.1571,1.1575,1.163,1.1633,1.1638,1.1598,1.1599,1.16,1.1628,0,1.1434,1.1469,1.1471,1.1501,1.1518,1.1513,1.153,1.1541,1.1545,1.1559,1.1564,1.158,1.1572,1.1578,1.159,1.1595,1.1612,1.1593,1.1612,1.1613,1.1608,1.1643,1.1647,1.1673,1.1632,1.1632,1.1633,0,1.1477,1.149,1.1523,1.1533,1.154,1.1555,1.157,1.1583,1.1595,1.1597,1.1607,1.1606,1.1624,1.1612,1.1636,1.1624,1.1631,1.1635,1.1636,1.1638,1.1624,1.1644,1.1682,1.1686,1.1639,1.1638,1.1638,0,1.1502,1.1528,1.155,1.1557,1.157,1.158,1.1587,1.1597,1.1606,1.1619,1.1624,1.1639,1.1647,1.1657,1.166,1.1651,1.1684,1.1672,1.1685,1.1685,1.1692,1.1692,1.1731,1.1698,1.1698,1.1698,1.1698,0,1.1538,1.1557,1.1561,1.1575,1.1596,1.1597,1.1618,1.1623,1.1632,1.1646,1.1643,1.1656,1.1658,1.1671,1.1673,1.1692,1.1696,1.1698,1.1698,1.1698,1.1697,1.1702,1.17,1.1699,1.1699,1.1699,1.1699,0,1.1569,1.1573,1.1596,1.1607,1.1609,1.1624,1.1633,1.1645,1.1649,1.1666,1.167,1.1675,1.169,1.1694,1.1712,1.1713,1.1735,1.1734,1.1731,1.1731,1.1744,1.1742,1.1787,1.1792,1.1757,1.1757,1.1757,0,1.1591,1.1606,1.1617,1.1626,1.1632,1.1647,1.1656,1.1657,1.1666,1.1679,1.1689,1.1704,1.1715,1.1739,1.1744,1.1758,1.1756,1.1771,1.1758,1.1757,1.1755,1.1754,1.1755,1.1773,1.1774,1.1774,1.1774,0,1.163,1.163,1.1643,1.1656,1.1667,1.1678,1.1687,1.1695,1.1697,1.1707,1.1722,1.1731,1.1749,1.1763,1.1775,1.1781,1.1777,1.1778,1.1781,1.1781,1.1779,1.1779,1.1737,1.1777,1.1777,1.1776,1.1776,1.1776,1.1657,1.1669,1.1678,1.1692,1.1699,1.1708,1.1719,1.1724,1.1736,1.175,1.175,1.1766,1.1775,1.1791,1.1797,1.1809,1.1805,1.181,1.1811,1.1812,1.1813,1.1777,1.1812,1.1812,1.1812,1.1811,1.1811,0,1.1694,1.1699,1.1712,1.1725,1.1736,1.1731,1.1741,1.175,1.1764,1.1773,1.1784,1.18,1.1813,1.1818,1.1831,1.1839,1.1838,1.1842,1.1841,1.1842,1.1817,1.1812,1.1843,1.1843,1.1843,1.1843,1.1843,1.1843,1.1715,1.1734,1.1735,1.1758,1.1763,1.1778,1.1784,1.1791,1.1798,1.1816,1.1826,1.1829,1.1836,1.1849,1.186,1.1861,1.1865,1.187,1.1871,1.1847,1.1844,1.1841,1.1837,1.1872,1.1872,1.1895,1.1895,1.1895]}]]